Location: Absher
(46.5583°N, 107.9840°W)
Time: 21:30:55
(UTC+00:00)

QB50P2 - Visible Passes

Search period start: 31 March 2023 00:00
Search period end: 10 April 2023 00:00
Orbit: 583 x 598 km, 98.0° (Epoch: 31 March)

Date Brightness Start Highest point End Pass type
(mag) Time Alt. Az. Time Alt. Az. Time Alt. Az.
31 Mar ? 09:16:38 10° N 09:18:04 21° N 09:18:04 21° N visible
01 Apr ? 09:24:56 10° N 09:26:33 22° N 09:26:33 22° N visible
02 Apr ? 09:33:15 10° N 09:34:59 23° N 09:34:59 23° N visible
03 Apr ? 08:06:40 10° NE 08:06:51 11° NE 08:06:51 11° NE visible
03 Apr ? 09:41:33 10° N 09:43:25 23° NNW 09:43:25 23° NNW visible
04 Apr ? 08:14:39 10° NE 08:15:16 13° NE 08:15:16 13° NE visible
04 Apr ? 09:49:53 10° N 09:51:50 23° NNW 09:51:50 23° NNW visible
05 Apr ? 08:22:40 10° NE 08:23:40 16° NE 08:23:40 16° NE visible
05 Apr ? 09:58:13 10° N 10:00:14 22° NNW 10:00:14 22° NNW visible
06 Apr ? 08:30:42 10° NNE 08:32:03 18° NE 08:32:03 18° NE visible
06 Apr ? 10:06:33 10° NNW 10:08:36 20° NW 10:08:36 20° NW visible
07 Apr ? 08:38:46 10° NNE 08:40:24 22° NE 08:40:24 22° NE visible
07 Apr ? 10:14:55 10° NNW 10:16:58 18° NW 10:16:58 18° NW visible
08 Apr ? 08:46:50 10° NNE 08:48:45 25° NE 08:48:45 25° NE visible
08 Apr ? 10:23:21 10° NNW 10:25:18 16° NW 10:25:18 16° NW visible
09 Apr ? 08:54:55 10° NNE 08:57:05 29° NNE 08:57:05 29° NNE visible
09 Apr ? 10:31:49 10° NNW 10:33:37 14° NW 10:33:37 14° NW visible
